Regional Weather Roundup
Issued by NWS

Home | Current Version | Previous Version | Text Only | Print | Product List | Glossary On
Versions: 1 2 3 4 5 6 7 8 9 10 11 12 13 14 15 16 17 18 19 20 21 22 23 24 25 26 27 28 29 30 31 32 33 34 35 36 37 38 39 40 41 42 43 44 45 46 47 48 49 50
000
ASUS43 KLSX 232007
RWRMO

WEATHER SUMMARY FOR MISSOURI
NATIONAL WEATHER SERVICE SPRINGFIELD MO
300 PM CDT SAT AUG 23 2014

NOTE: "FAIR" INDICATES FEW OR NO CLOUDS BELOW 12,000 FEET WITH NO
       SIGNIFICANT WEATHER AND/OR OBSTRUCTIONS TO VISIBILITY.
       CURRENT SKY AND/OR WEATHER CONDITIONS ARE NOT AVAILABLE FOR
       CHILLICOTHE AND FARMINGTON.

MOZ001>031-035>038-043-044-053-054-232100-
...NORTHERN AND WESTERN MISSOURI...

CITY           SKY/WX    TMP DP  RH WIND       PRES   REMARKS
KANSAS CTY INT MOSUNNY   95  71  45 S9        29.88F HX 102
KANSAS C DTWN  SUNNY     98  69  38 SE13G18   29.85F HX 104
LEE`S SUMMIT   SUNNY     95  66  38 S12G21    29.90F HX  98
ST JOSEPH      SUNNY     91  73  55 SE9       29.87S HX  99
CHILLICOTHE      N/A     90  75  61 S9G16     29.90F HX 100
KIRKSVILLE     SUNNY     90  78  68 S12       29.92F HX 104

$$
MOZ066>068-077>081-088>096-101>105-232100-
...SOUTHWEST MISSOURI...

CITY           SKY/WX    TMP DP  RH WIND       PRES   REMARKS
SPRINGFIELD    SUNNY     99  57  24 SW10      29.95F HX  98
JOPLIN         SUNNY    100  61  27 SW12G20   29.93F HX 101

$$
MOZ032>034-039>042-045>050-055>058-069>072-232100-
...CENTRAL MISSOURI...

CITY           SKY/WX    TMP DP  RH WIND       PRES   REMARKS
COLUMBIA       SUNNY     95  68  41 VRB5      29.93F HX  99
JEFFERSON CITY MOSUNNY   94  70  45 S5        29.91F HX 100
ROLLA          PTSUNNY   95  67  39 S7        29.94F HX  99
SEDALIA        SUNNY     95  69  42 SW7       29.93F HX 100
WHITEMAN AFB   SUNNY     94  68  42 S8        29.91F HX  98
OSAGE BEACH    SUNNY     97  64  34 CALM      29.92F HX  99

$$
MOZ051-052-059>065-232100-
...EAST CENTRAL MISSOURI...

CITY           SKY/WX    TMP DP  RH WIND       PRES   REMARKS
ST LOUIS INTL  PTSUNNY   98  73  44 N3        29.93F HX 108
SPIRIT OF STL  PTSUNNY   94  73  50 CALM      29.92F HX 103
ST CHARLES     MOSUNNY   93  75  55 CALM      29.91F HX 104

$$
MOZ072>076-082>087-097>100-106>115-232100-
...SOUTH CENTRAL AND SOUTHEAST MISSOURI...

CITY           SKY/WX    TMP DP  RH WIND       PRES   REMARKS
CAPE GIRARDEAU PTSUNNY   93  76  57 S5        29.92F HX 105
POPLAR BLUFF   SUNNY     97  68  38 SE7       29.91F HX 102
WEST PLAINS    SUNNY     95  64  35 SW6       29.98F HX  97

$$


USA.gov is the U.S. government's official web portal to all federal, state and local government web resources and services.